KAITUO 1B (40912 NORAD) Tracking and Keplerian Element Data

This shows tracking and keplerian element data for the satellite.

Feedback or suggestion? Click here.




ElementValue
Catalog40912
NameKAITUO 1B
Epoch Orbit39767
Epoch Day325.14089788
Epoch Year2022
RAAN336.1291
Inclination97.434
Eccentricity0.001398
Argument of Perigee103.8269
Mean Anonmoly324.7624
Mean Motion15.29908825
Decay Rate0.00012718
L11 40912U 15049P 22325.14089788 .00012718 00000+0 44029-3 0 9994
L22 40912 97.4340 336.1291 0013980 103.8269 324.7624 15.29908825397679



Live tracking and technical data element details for KAITUO 1B (NORAD 40912). KAITUO 1B can be tracked NOW for your location showing map with azimuth and elevation plus other details from your city location.







IsCatalogInMostPopularTable: catalog: 40912, numindb: 593
Update: records affected: 1



GetName: 40912 KAITUO 1B

Hit Count: updated at: Mon, 28 Nov 2022 04:06:41 GMT